Location: Newark
(35.6799°N, 139.7636°E)
Time: 17:52:21
(UTC+00:00)

Explorer 7 - Pass Details

Date: 08 December 2019
Orbit: 485 x 679 km, 50.3° (Epoch: 21 January)

Event Time Altitude Azimuth Distance (km) Brightness Sun altitude
Rises 08:18:42 0° 265° (W) 3,005 12.3 -10.3°
Reaches altitude 10° 08:21:22 10° 278° (W) 2,106 10.8 -10.8°
Maximum altitude 08:25:28 26° 335° (NNW) 1,323 8.8 -11.6°
Enters shadow 08:29:30 10° 32° (NNE) 2,082 9.3 -12.4°
Drops below altitude 10° 08:29:36 10° 33° (NNE) 2,111 - -12.4°
Sets 08:32:17 0° 45° (NE) 3,013 - -12.9°
